Location: Lincoln Park
(32.7042°N, 117.0895°W)
Time: 17:03:49
(UTC+00:00)

DELTA 2 DEB (DPAF) - Pass Details

Date: 26 June 2022
Orbit: 635 x 638 km, 98.4° (Epoch: 09 August)

Event Time Altitude Azimuth Distance (km) Brightness Sun altitude
Rises 12:06:55 0° 179° (S) 2,916 7.2 -7.2°
Reaches altitude 10° 12:09:10 10° 185° (S) 2,012 6.3 -6.8°
Maximum altitude 12:13:24 48° 260° (W) 826 4.4 -6.1°
Drops below altitude 10° 12:17:40 10° 335° (NNW) 2,024 6.8 -5.3°
Sets 12:19:56 0° 341° (NNW) 2,937 7.7 -4.9°
